Location: Sternwarte ZA, Rosenfeld-Brittheim
(48.2889°N, 8.6789°E)
Time: 07:17:18
(UTC+02:00)

Tiangong 1 - Visible Passes

Search period start: 27 June 2017 00:00
Search period end: 07 July 2017 00:00
Orbit: 321 x 344 km, 42.8° (Epoch: 26 June)

Date Brightness Start Highest point End Pass type
(mag) Time Alt. Az. Time Alt. Az. Time Alt. Az.
27 Jun 2.6 23:25:23 10° WSW 23:27:00 17° SSW 23:27:00 17° SSW visible
28 Jun 2.2 22:08:59 10° WSW 22:11:20 24° S 22:13:40 10° SE visible
29 Jun 2.6 22:28:16 10° WSW 22:30:18 18° SSW 22:31:59 12° SSE visible
30 Jun 3.2 22:48:08 10° SW 22:49:09 11° SSW 22:49:58 10° S visible
